Voltar ao catálogo

STARLINK-34695

AtivoComunicaçõesVLEO
NORAD 64916·PAYLOAD·🇺🇸 United States

Lançado Jul 26, 2025 de Cape Canaveral Space Force Station

Loading…

Próximas Passagens (próximas 24 horas)

TLE

AtualizadoSource: CelesTrak SupGP

Época: Sep 14, 2026, 23:06 UTC

1 64916C 25157N   26257.96298611 -.00052160  00000+0 -15405-2 0  2579
2 64916  53.1582 175.9561 0001277  92.2271 178.5638 15.34428123    18

Acompanhe STARLINK-34695 em tempo real com AllMySat

Download on the App Store